Chicago Midway, IL

9:48 AM CDT on September 25, 2017 (GMT -0500)
Chicago-Midway

Weather History for KMDW - June, 2014

Change the Weather History Date:

Saturday, June 14, 2014

  Actual Average Record
Temperature  
Mean Temperature 69 °F 71 °F  
Max Temperature 80 °F 80 °F 99 °F (1987)
Min Temperature 57 °F 62 °F 40 °F (1933)
Degree Days  
Heating Degree Days 0 1  
Month to date heating degree days 2 23  
Since 1 June heating degree days 2 23  
Since 1 July heating degree days 6809 5982  
Cooling Degree Days 4 7  
Month to date cooling degree days 69 68  
Year to date cooling degree days 180 142  
Since 1 June cooling degree days 69 68  
Growing Degree Days 18 (Base 50)    
Moisture  
Dew Point 42 °F    
Average Humidity 37    
Maximum Humidity 60    
Minimum Humidity 13    
Precipitation  
Precipitation 0.00 in 0.14 in 2.58 in (1949)
Month to date precipitation 2.18 2.04  
Year to date precipitation 13.47 16.53  
Sea Level Pressure  
Sea Level Pressure 30.03 in    
Wind  
Wind Speed 9 mph (South)    
Max Wind Speed 17 mph    
Max Gust Speed 24 mph    
Visibility 10 miles    
Events      
T = Trace of Precipitation, MM = Missing Value Source: NWS Daily Summary

Daily Weather History Graph

Daily Weather History Graph

Search for Another Location

Airport or City:

Trip Planner

Search our weather history database for the weather conditions in past years. The results will help you decide how hot, cold, wet, or windy it might be!

Date:

Astronomy

Jun. 14, 2014 Rise Set
Actual Time 5:15 AM CDT 8:27 PM CDT
Civil Twilight 4:41 AM CDT 9:01 PM CDT
Nautical Twilight 3:57 AM CDT 9:45 PM CDT
Astronomical Twilight 3:04 AM CDT 10:38 PM CDT
Moon 9:48 PM CDT (6/14) 7:00 AM CDT (6/14)
Length of Visible Light 16h 20m
Length of Day
15h 11m
Waning Gibbous, 97% of the Moon is Illuminated
Jun 14
Waning Gibbous
Jun 19
Last Quarter
Jun 27
New
Jul 5
First Quarter
Jul 12
Full

Hourly Weather History & Observations

Time (CDT) Temp. Dew Point Humidity Pressure Visibility Wind Dir Wind Speed Gust Speed Precip Events Conditions
12:51 AM 62.1 °F 46.0 °F 56% 30.02 in 10.0 mi South 6.9 mph - N/A   Mostly Cloudy
1:51 AM 60.1 °F 44.1 °F 55% 30.04 in 10.0 mi SSW 8.1 mph - N/A   Partly Cloudy
2:51 AM 59.0 °F 43.0 °F 55% 30.05 in 10.0 mi SSW 6.9 mph - N/A   Partly Cloudy
3:51 AM 57.9 °F 43.0 °F 58% 30.06 in 10.0 mi SSW 4.6 mph - N/A   Scattered Clouds
4:51 AM 57.9 °F 43.0 °F 58% 30.06 in 10.0 mi South 4.6 mph - N/A   Mostly Cloudy
5:51 AM 57.9 °F 44.1 °F 60% 30.08 in 10.0 mi SSW 4.6 mph - N/A   Mostly Cloudy
6:51 AM 61.0 °F 43.0 °F 52% 30.09 in 10.0 mi SSW 6.9 mph - N/A   Mostly Cloudy
7:51 AM 66.0 °F 39.9 °F 38% 30.10 in 10.0 mi SSW 9.2 mph - N/A   Mostly Cloudy
8:51 AM 69.1 °F 39.9 °F 35% 30.09 in 10.0 mi SW 10.4 mph - N/A   Mostly Cloudy
9:51 AM 72.0 °F 44.1 °F 37% 30.09 in 10.0 mi SSW 6.9 mph - N/A   Mostly Cloudy
10:51 AM 73.0 °F 44.1 °F 35% 30.10 in 10.0 mi Variable 4.6 mph - N/A   Mostly Cloudy
11:51 AM 75.9 °F 41.0 °F 29% 30.08 in 10.0 mi South 10.4 mph 16.1 mph N/A   Mostly Cloudy
12:51 PM 77.0 °F 41.0 °F 28% 30.07 in 10.0 mi South 4.6 mph 19.6 mph N/A   Mostly Cloudy
1:51 PM 78.1 °F 41.0 °F 27% 30.03 in 10.0 mi SE 12.7 mph - N/A   Scattered Clouds
2:51 PM 79.0 °F 39.9 °F 25% 30.02 in 10.0 mi South 8.1 mph - N/A   Scattered Clouds
3:51 PM 80.1 °F 37.9 °F 22% 30.01 in 10.0 mi South 11.5 mph 19.6 mph N/A   Mostly Cloudy
4:51 PM 80.1 °F 39.9 °F 24% 30.00 in 10.0 mi SSE 12.7 mph 23.0 mph N/A   Mostly Cloudy
5:51 PM 79.0 °F 42.1 °F 27% 29.98 in 10.0 mi SE 11.5 mph - N/A   Mostly Cloudy
6:51 PM 79.0 °F 42.1 °F 27% 29.96 in 10.0 mi SSE 13.8 mph 23.0 mph N/A   Mostly Cloudy
7:51 PM 77.0 °F 43.0 °F 30% 29.96 in 10.0 mi SE 9.2 mph 19.6 mph N/A   Mostly Cloudy
8:51 PM 75.0 °F 43.0 °F 32% 29.96 in 10.0 mi SSE 11.5 mph - N/A   Mostly Cloudy
9:51 PM 72.0 °F 44.1 °F 37% 29.98 in 10.0 mi SE 6.9 mph - N/A   Mostly Cloudy
10:51 PM 71.1 °F 45.0 °F 39% 29.98 in 10.0 mi SE 6.9 mph - N/A   Scattered Clouds
11:51 PM 69.8 °F 46.4 °F 43% 30.01 in 10.0 mi SSE 8.1 mph - N/A   Scattered Clouds